Home   Weather   Osage City   Past weeks

Flag for USA Past Weather in Osage City, Kansas, USA — Yesterday and Last 2 Weeks

Now
26 °F

Clear.


Feels Like: 19 °F
Forecast: 19 / 39 °F
Wind: 6 mph from Southeast

Location: Forbes Field

Current Time: Dec 10, 2016 at 7:04:28 am

Latest Report: Dec 10, 2016 at 5:53 am


Visibility: 10 mi

Pressure: 30.45 "Hg

Humidity: 71%

Dew Point: 18 °F

Location of Osage CityLocation

Past Weather in Osage City — Graph

°F

Osage City Temperature Yesterday

Maximum temperature yesterday: 28 °F (at 1:53 pm)
Minimum temperature yesterday: 10 °F (at 3:53 am)
Average temperature yesterday: 22 °F

High & Low Weather Summary for the Past Weeks

 TemperatureHumidityPressure
High62 °F (Nov 26, 1:53 pm)93% (Dec 6, 12:53 am)30.71 "Hg (Dec 6, 12:53 am)
Low10 °F (Dec 9, 3:53 am)31% (Nov 28, 2:53 pm)29.16 "Hg (Nov 28, 1:53 pm)
Average37 °F68%30.07 "Hg
* Reported Nov 25 5:53 am — Dec 10 5:53 am, Osage City, Weather by CustomWeather, © 2016

Note: Actual official high and low records may vary slightly from our data, if they occured in-between our weather recording intervals... More about our weather records

Advertising

Osage City Weather History for the Previous 24 Hours

Scroll right to see more
 ConditionsComfort  
Time TempWeatherWind HumidityBarometerVisibility
5:53 am
Sat, Dec 10
26 °FClear.6 mph71%30.45 "Hg10 mi
4:53 am25 °FPassing clouds.3 mph75%30.47 "Hg10 mi
3:53 am25 °FOvercast.3 mph78%30.48 "Hg10 mi
2:53 am24 °FOvercast.5 mph77%30.51 "Hg10 mi
1:53 am22 °FClear.5 mph75%30.51 "Hg10 mi
12:53 am24 °FPassing clouds.5 mph71%30.52 "Hg10 mi
11:53 pm
Fri, Dec 9
25 °FPassing clouds.5 mph66%30.52 "Hg10 mi
10:53 pm28 °FOvercast.6 mph64%30.53 "Hg10 mi
9:53 pm28 °FOvercast.5 mph64%30.52 "Hg10 mi
8:53 pm28 °FOvercast.3 mph61%30.55 "Hg10 mi
7:53 pm28 °FOvercast.6 mph58%30.54 "Hg10 mi
6:53 pm28 °FOvercast.6 mph58%30.55 "Hg10 mi
5:53 pm28 °FOvercast.6 mph56%30.55 "Hg10 mi
4:53 pm28 °FOvercast.7 mph56%30.55 "Hg10 mi
3:53 pm28 °FOvercast.9 mph53%30.55 "Hg10 mi
2:53 pm28 °FOvercast.9 mph49%30.55 "Hg10 mi
1:53 pm28 °FOvercast.10 mph49%30.56 "Hg10 mi
12:53 pm27 °FOvercast.9 mph55%30.60 "Hg10 mi
11:53 am26 °FOvercast.10 mph57%30.65 "Hg10 mi
10:54 am23 °FPassing clouds.8 mph65%30.64 "Hg10 mi
9:53 am21 °FPartly sunny.7 mph68%30.69 "Hg10 mi
8:53 am19 °FSunny.5 mph74%30.69 "Hg10 mi
7:53 am16 °FPartly sunny.3 mph84%30.69 "Hg10 mi
Weather by CustomWeather, © 2016

See weather overviewHow to use our weather pages